| time (UTC) | temp C | wind direction | speed KPH | gust KPH | rain 1hr cm | rain 24hr cm | rain mn cm | humidity % | barometer mb |
| 20260505200013 | 26 | 144 | 12.9 | 24.1 | 0.00 | 0.00 | 0.00 | 44 | 1015.8 |
| 20260505194535 | 25 | 178 | 11.3 | 16.1 | 0.00 | 0.00 | 0.00 | 44 | 1015.9 |
| 20260505193012 | 26 | 142 | 11.3 | 27.4 | 0.00 | 0.00 | 0.00 | 44 | 1016.2 |
| 20260505191508 | 25 | 165 | 9.7 | 20.9 | 0.00 | 0.00 | 0.00 | 43 | 1016.6 |
| 20260505190012 | 25 | 120 | 6.4 | 16.1 | 0.00 | 0.00 | 0.00 | 46 | 1016.8 |
| 20260505184516 | 25 | 152 | 11.3 | 19.3 | 0.00 | 0.00 | 0.00 | 46 | 1017.0 |
| 20260505183026 | 25 | 151 | 16.1 | 22.5 | 0.00 | 0.00 | 0.00 | 45 | 1017.0 |
| 20260505181505 | 25 | 183 | 11.3 | 20.9 | 0.00 | 0.00 | 0.00 | 45 | 1016.9 |
| 20260505180009 | 25 | 253 | 3.2 | 17.7 | 0.00 | 0.00 | 0.00 | 45 | 1016.7 |
| 20260505174529 | 25 | 139 | 4.8 | 11.3 | 0.00 | 0.00 | 0.00 | 45 | 1016.9 |
| 20260505173004 | 25 | 175 | 4.8 | 25.7 | 0.00 | 0.00 | 0.00 | 44 | 1017.1 |
| 20260505171530 | 25 | 200 | 4.8 | 12.9 | 0.00 | 0.00 | 0.00 | 43 | 1017.2 |
| 20260505170014 | 25 | 163 | 8.0 | 17.7 | 0.00 | 0.00 | 0.00 | 44 | 1017.5 |
| 20260505164517 | 25 | 88 | 4.8 | 9.7 | 0.00 | 0.00 | 0.00 | 44 | 1017.7 |
| 20260505163020 | 25 | 351 | 1.6 | 17.7 | 0.00 | 0.00 | 0.00 | 47 | 1018.0 |
| 20260505161505 | 23 | 177 | 8.0 | 19.3 | 0.00 | 0.00 | 0.00 | 46 | 1018.1 |
| 20260505153015 | 23 | 180 | 8.0 | 16.1 | 0.00 | 0.00 | 0.00 | 53 | 1018.3 |
| 20260505151518 | 23 | 240 | 6.4 | 12.9 | 0.00 | 0.00 | 0.00 | 52 | 1018.3 |
| 20260505124523 | 17 | 209 | 1.6 | 4.8 | 0.00 | 0.00 | 0.00 | 80 | 1018.1 |
| 20260505123050 | 15 | 123 | 1.6 | 3.2 | 0.00 | 0.00 | 0.00 | 85 | 1018.1 |
| 20260505121513 | 14 | 124 | 0.0 | 3.2 | 0.00 | 0.00 | 0.00 | 87 | 1018.1 |
| 20260505120019 | 13 | 156 | 0.0 | 1.6 | 0.00 | 0.00 | 0.00 | 89 | 1018.0 |
| 20260505114524 | 11 | 156 | 0.0 | 3.2 | 0.00 | 0.00 | 0.00 | 92 | 1017.8 |
| 20260505113033 | 10 | 156 | 0.0 | 3.2 | 0.00 | 0.00 | 0.00 | 93 | 1017.6 |
| 20260505111549 | 10 | 156 | 0.0 | 3.2 | 0.00 | 0.00 | 0.00 | 93 | 1017.6 |
| 20260505101509 | 10 | 157 | 0.0 | 3.2 | 0.00 | 0.00 | 0.00 | 93 | 1017.0 |
| 20260505100012 | 10 | 157 | 0.0 | 3.2 | 0.00 | 0.00 | 0.00 | 92 | 1016.7 |
| 20260505094517 | 10 | 157 | 0.0 | 0.0 | 0.00 | 0.00 | 0.00 | 92 | 1016.8 |
| 20260505093003 | 10 | 157 | 0.0 | 3.2 | 0.00 | 0.00 | 0.00 | 92 | 1016.7 |
| 20260505091505 | 10 | 157 | 0.0 | 1.6 | 0.00 | 0.00 | 0.00 | 92 | 1016.5 |
| 20260505090010 | 10 | 157 | 0.0 | 3.2 | 0.00 | 0.00 | 0.00 | 92 | 1016.3 |
| 20260505084518 | 10 | 157 | 0.0 | 3.2 | 0.00 | 0.00 | 0.00 | 92 | 1016.2 |
| 20260505083021 | 10 | 157 | 0.0 | 3.2 | 0.00 | 0.00 | 0.00 | 91 | 1016.1 |
| 20260505081531 | 10 | 157 | 0.0 | 1.6 | 0.00 | 0.00 | 0.00 | 91 | 1016.1 |
| 20260505080012 | 11 | 157 | 0.0 | 3.2 | 0.00 | 0.00 | 0.00 | 91 | 1016.0 |
| 20260505074512 | 11 | 157 | 0.0 | 3.2 | 0.00 | 0.00 | 0.00 | 91 | 1015.9 |
| 20260505073017 | 11 | 157 | 0.0 | 3.2 | 0.00 | 0.00 | 0.00 | 90 | 1015.9 |
| 20260505071520 | 11 | 157 | 0.0 | 3.2 | 0.00 | 0.00 | 0.00 | 90 | 1015.9 |
| 20260505070005 | 11 | 157 | 0.0 | 0.0 | 0.00 | 0.00 | 0.00 | 89 | 1015.9 |
| 20260505064506 | 11 | 157 | 0.0 | 0.0 | 0.00 | 0.00 | 0.00 | 88 | 1016.0 |
| 20260505063015 | 12 | 157 | 0.0 | 0.0 | 0.00 | 0.00 | 0.00 | 88 | 1016.1 |
| 20260505061529 | 12 | 157 | 0.0 | 3.2 | 0.00 | 0.00 | 0.00 | 87 | 1016.3 |
| 20260505060027 | 12 | 157 | 0.0 | 3.2 | 0.00 | 0.00 | 0.00 | 87 | 1016.5 |
| 20260505054508 | 12 | 157 | 0.0 | 3.2 | 0.00 | 0.00 | 0.00 | 87 | 1016.7 |
| 20260505053011 | 12 | 157 | 0.0 | 3.2 | 0.00 | 0.00 | 0.00 | 86 | 1016.8 |
| 20260505051516 | 12 | 157 | 0.0 | 3.2 | 0.00 | 0.00 | 0.00 | 86 | 1017.0 |
| 20260505041519 | 13 | 157 | 0.0 | 3.2 | 0.00 | 0.00 | 0.00 | 80 | 1017.1 |
| 20260505040020 | 13 | 157 | 0.0 | 3.2 | 0.00 | 0.00 | 0.00 | 79 | 1017.1 |
| 20260505034521 | 13 | 157 | 0.0 | 3.2 | 0.00 | 0.00 | 0.00 | 77 | 1017.2 |
| 20260505033028 | 14 | 157 | 0.0 | 0.0 | 0.00 | 0.00 | 0.00 | 74 | 1017.2 |
| 20260505031526 | 15 | 157 | 0.0 | 3.2 | 0.00 | 0.00 | 0.00 | 71 | 1017.2 |
| 20260505030014 | 15 | 157 | 0.0 | 3.2 | 0.00 | 0.00 | 0.00 | 69 | 1017.2 |
| 20260505024535 | 16 | 157 | 0.0 | 3.2 | 0.00 | 0.00 | 0.00 | 66 | 1017.2 |
| 20260505023022 | 16 | 157 | 0.0 | 3.2 | 0.00 | 0.00 | 0.00 | 1017.1 | |
| 20260505021525 | 17 | 161 | 0.0 | 4.8 | 0.00 | 0.00 | 0.00 | 62 | 1017.0 |
| 20260505020026 | 17 | 143 | 1.6 | 8.0 | 0.00 | 0.00 | 0.00 | 60 | 1017.0 |
| 20260505020022 | 17 | 152 | 1.6 | 8.0 | 0.00 | 0.00 | 0.00 | 60 | 1017.0 |
| 20260505014518 | 17 | 180 | 1.6 | 6.4 | 0.00 | 0.00 | 0.00 | 59 | 1016.9 |
| 20260505013013 | 18 | 168 | 4.8 | 11.3 | 0.00 | 0.00 | 0.00 | 57 | 1016.8 |
| 20260505011508 | 18 | 167 | 4.8 | 11.3 | 0.00 | 0.00 | 0.00 | 55 | 1016.8 |
| 20260505010010 | 19 | 179 | 8.0 | 14.5 | 0.00 | 0.00 | 0.00 | 54 | 1016.7 |
| 20260505004517 | 19 | 177 | 4.8 | 17.7 | 0.00 | 0.00 | 0.00 | 54 | 1016.5 |
| 20260505003020 | 20 | 198 | 8.0 | 14.5 | 0.00 | 0.00 | 0.00 | 54 | 1016.4 |
| 20260505001506 | 20 | 204 | 8.0 | 14.5 | 0.00 | 0.00 | 0.00 | 55 | 1016.4 |
| 20260505000022 | 20 | 167 | 4.8 | 14.5 | 0.00 | 0.00 | 0.00 | 55 | 1016.4 |
| 20260504234509 | 20 | 159 | 11.3 | 17.7 | 0.00 | 0.00 | 0.00 | 53 | 1016.1 |
| 20260504233021 | 21 | 159 | 9.7 | 17.7 | 0.00 | 0.00 | 0.00 | 51 | 1016.2 |
| 20260504231528 | 21 | 200 | 9.7 | 16.1 | 0.00 | 0.00 | 0.00 | 49 | 1016.1 |
| 20260504230006 | 21 | 182 | 9.7 | 17.7 | 0.00 | 0.00 | 0.00 | 47 | 1016.1 |
| 20260504224511 | 22 | 173 | 8.0 | 24.1 | 0.00 | 0.00 | 0.00 | 45 | 1016.0 |
| 20260504223030 | 22 | 186 | 14.5 | 22.5 | 0.00 | 0.00 | 0.00 | 44 | 1016.0 |
| 20260504221518 | 22 | 159 | 9.7 | 27.4 | 0.00 | 0.00 | 0.00 | 43 | 1015.9 |
| 20260504220027 | 23 | 163 | 17.7 | 29.0 | 0.00 | 0.00 | 0.00 | 42 | 1015.8 |
| 20260504214526 | 23 | 188 | 8.0 | 27.4 | 0.00 | 0.00 | 0.00 | 42 | 1015.5 |
| 20260504213012 | 24 | 184 | 11.3 | 30.6 | 0.00 | 0.00 | 0.00 | 41 | 1015.6 |
| 20260504211531 | 24 | 138 | 12.9 | 25.7 | 0.00 | 0.00 | 0.00 | 40 | 1015.4 |
| 20260504210022 | 25 | 200 | 8.0 | 16.1 | 0.00 | 0.00 | 0.00 | 35 | 1015.4 |
| 20260504204525 | 25 | 187 | 6.4 | 17.7 | 0.00 | 0.00 | 0.00 | 33 | 1015.3 |
| 20260504203019 | 25 | 163 | 6.4 | 17.7 | 0.00 | 0.00 | 0.00 | 34 | 1015.7 |
| 20260504201512 | 25 | 152 | 8.0 | 20.9 | 0.00 | 0.00 | 0.00 | 33 | 1015.8 |